Year,Month,Day,Hour,Minute,Value (Times are PST for temperature in C)
2009,08,17,00,00,17.70
2009,08,17,00,01,17.70
2009,08,17,00,02,17.70
2009,08,17,00,03,17.70
2009,08,17,00,04,17.70
2009,08,17,00,05,17.80
2009,08,17,00,06,17.80
2009,08,17,00,07,17.80
2009,08,17,00,08,17.90
2009,08,17,00,09,17.90
2009,08,17,00,10,17.90
2009,08,17,00,11,18.00
2009,08,17,00,12,18.10
2009,08,17,00,13,18.10
2009,08,17,00,14,18.20
2009,08,17,00,15,18.30
2009,08,17,00,16,18.30
2009,08,17,00,17,18.30
2009,08,17,00,18,18.30
2009,08,17,00,19,18.40
2009,08,17,00,20,18.40
2009,08,17,00,21,18.40
2009,08,17,00,22,18.40
2009,08,17,00,23,18.50
2009,08,17,00,24,18.60
2009,08,17,00,25,18.70
2009,08,17,00,26,18.70
2009,08,17,00,27,18.80
2009,08,17,00,28,18.90
2009,08,17,00,29,19.00
2009,08,17,00,30,19.10
2009,08,17,00,31,19.20
2009,08,17,00,32,19.20
2009,08,17,00,33,19.30
2009,08,17,00,34,19.30
2009,08,17,00,35,19.40
2009,08,17,00,36,19.40
2009,08,17,00,37,19.40
2009,08,17,00,38,19.50
2009,08,17,00,39,19.50
2009,08,17,00,40,19.50
2009,08,17,00,41,19.50
2009,08,17,00,42,19.60
2009,08,17,00,43,19.60
2009,08,17,00,44,19.60
2009,08,17,00,45,19.60
2009,08,17,00,46,19.60
2009,08,17,00,47,19.50
2009,08,17,00,48,19.50
2009,08,17,00,49,19.50
2009,08,17,00,50,19.50
2009,08,17,00,51,19.50
2009,08,17,00,52,19.50
2009,08,17,00,53,19.40
2009,08,17,00,54,19.40
2009,08,17,00,55,19.40
2009,08,17,00,56,19.40
2009,08,17,00,57,19.40
2009,08,17,00,58,19.40
2009,08,17,00,59,19.30
2009,08,17,01,00,19.30
2009,08,17,01,01,19.30
2009,08,17,01,02,19.30
2009,08,17,01,03,19.30
2009,08,17,01,04,19.30
2009,08,17,01,05,19.20
2009,08,17,01,06,19.20
2009,08,17,01,07,19.20
2009,08,17,01,08,19.20
2009,08,17,01,09,19.20
2009,08,17,01,10,19.20
2009,08,17,01,11,19.10
2009,08,17,01,12,19.10
2009,08,17,01,13,19.10
2009,08,17,01,14,19.10
2009,08,17,01,15,19.10
2009,08,17,01,16,19.10
2009,08,17,01,17,19.10
2009,08,17,01,18,19.10
2009,08,17,01,19,19.10
2009,08,17,01,20,19.00
2009,08,17,01,21,19.00
2009,08,17,01,22,19.00
2009,08,17,01,23,19.00
2009,08,17,01,24,18.90
2009,08,17,01,25,18.90
2009,08,17,01,26,18.90
2009,08,17,01,27,18.90
2009,08,17,01,28,18.90
2009,08,17,01,29,18.90
2009,08,17,01,30,18.80
2009,08,17,01,31,18.80
2009,08,17,01,32,18.80
2009,08,17,01,33,18.80
2009,08,17,01,34,18.80
2009,08,17,01,35,18.80
2009,08,17,01,36,18.70
2009,08,17,01,37,18.70
2009,08,17,01,38,18.70
2009,08,17,01,39,18.70
2009,08,17,01,40,18.70
2009,08,17,01,41,18.70
2009,08,17,01,42,18.70
2009,08,17,01,43,18.60
2009,08,17,01,44,18.60
2009,08,17,01,45,18.60
2009,08,17,01,46,18.60
2009,08,17,01,47,18.60
2009,08,17,01,48,18.60
2009,08,17,01,49,18.60
2009,08,17,01,50,18.50
2009,08,17,01,51,18.50
2009,08,17,01,52,18.50
2009,08,17,01,53,18.40
2009,08,17,01,54,18.40
2009,08,17,01,55,18.40
2009,08,17,01,56,18.40
2009,08,17,01,57,18.40
2009,08,17,01,58,18.40
2009,08,17,01,59,18.40
2009,08,17,02,00,18.40
2009,08,17,02,01,18.40
2009,08,17,02,02,18.40
2009,08,17,02,03,18.40
2009,08,17,02,04,18.30
2009,08,17,02,05,18.30
2009,08,17,02,06,18.30
2009,08,17,02,07,18.30
2009,08,17,02,08,18.30
2009,08,17,02,09,18.30
2009,08,17,02,10,18.30
2009,08,17,02,11,18.20
2009,08,17,02,12,18.20
2009,08,17,02,13,18.20
2009,08,17,02,14,18.20
2009,08,17,02,15,18.20
2009,08,17,02,16,18.20
2009,08,17,02,17,18.20
2009,08,17,02,18,18.20
2009,08,17,02,19,18.10
2009,08,17,02,20,18.10
2009,08,17,02,21,18.10
2009,08,17,02,22,18.10
2009,08,17,02,23,18.10
2009,08,17,02,24,18.10
2009,08,17,02,25,18.10
2009,08,17,02,26,18.00
2009,08,17,02,27,18.00
2009,08,17,02,28,18.00
2009,08,17,02,29,18.00
2009,08,17,02,30,18.00
2009,08,17,02,31,17.90
2009,08,17,02,32,17.90
2009,08,17,02,33,17.90
2009,08,17,02,34,17.90
2009,08,17,02,35,17.90
2009,08,17,02,36,17.80
2009,08,17,02,37,17.80
2009,08,17,02,38,17.80
2009,08,17,02,39,17.80
2009,08,17,02,40,17.80
2009,08,17,02,41,17.80
2009,08,17,02,42,17.70
2009,08,17,02,43,17.70
2009,08,17,02,44,17.70
2009,08,17,02,45,17.70
2009,08,17,02,46,17.70
2009,08,17,02,47,17.70
2009,08,17,02,48,17.70
2009,08,17,02,49,17.70
2009,08,17,02,50,17.70
2009,08,17,02,51,17.70
2009,08,17,02,52,17.60
2009,08,17,02,53,17.60
2009,08,17,02,54,17.60
2009,08,17,02,55,17.60
2009,08,17,02,56,17.60
2009,08,17,02,57,17.60
2009,08,17,02,58,17.50
2009,08,17,02,59,17.50
2009,08,17,03,00,17.50
2009,08,17,03,01,17.50
2009,08,17,03,02,17.50
2009,08,17,03,03,17.50
2009,08,17,03,04,17.50
2009,08,17,03,05,17.50
2009,08,17,03,06,17.50
2009,08,17,03,07,17.50
2009,08,17,03,08,17.50
2009,08,17,03,09,17.40
2009,08,17,03,10,17.40
2009,08,17,03,11,17.40
2009,08,17,03,12,17.40
2009,08,17,03,13,17.40
2009,08,17,03,14,17.40
2009,08,17,03,15,17.40
2009,08,17,03,16,17.40
2009,08,17,03,17,17.40
2009,08,17,03,18,17.40
2009,08,17,03,19,17.30
2009,08,17,03,20,17.30
2009,08,17,03,21,17.30
2009,08,17,03,22,17.30
2009,08,17,03,23,17.30
2009,08,17,03,24,17.30
2009,08,17,03,25,17.30
2009,08,17,03,26,17.20
2009,08,17,03,27,17.20
2009,08,17,03,28,17.20
2009,08,17,03,29,17.20
2009,08,17,03,30,17.20
2009,08,17,03,31,17.20
2009,08,17,03,32,17.20
2009,08,17,03,33,17.20
2009,08,17,03,34,17.20
2009,08,17,03,35,17.20
2009,08,17,03,36,17.20
2009,08,17,03,37,17.20
2009,08,17,03,38,17.20
2009,08,17,03,39,17.20
2009,08,17,03,40,17.20
2009,08,17,03,41,17.10
2009,08,17,03,42,17.10
2009,08,17,03,43,17.10
2009,08,17,03,44,17.10
2009,08,17,03,45,17.10
2009,08,17,03,46,17.10
2009,08,17,03,47,17.10
2009,08,17,03,48,17.10
2009,08,17,03,49,17.10
2009,08,17,03,50,17.00
2009,08,17,03,51,17.00
2009,08,17,03,52,17.00
2009,08,17,03,53,17.00
2009,08,17,03,54,16.90
2009,08,17,03,55,16.90
2009,08,17,03,56,16.90
2009,08,17,03,57,16.90
2009,08,17,03,58,16.90
2009,08,17,03,59,16.90
2009,08,17,04,00,16.90
2009,08,17,04,01,16.80
2009,08,17,04,02,16.80
2009,08,17,04,03,16.80
2009,08,17,04,04,16.80
2009,08,17,04,05,16.80
2009,08,17,04,06,16.80
2009,08,17,04,07,16.80
2009,08,17,04,08,16.80
2009,08,17,04,09,16.70
2009,08,17,04,10,16.70
2009,08,17,04,11,16.70
2009,08,17,04,12,16.70
2009,08,17,04,13,16.70
2009,08,17,04,14,16.70
2009,08,17,04,15,16.70
2009,08,17,04,16,16.70
2009,08,17,04,17,16.70
2009,08,17,04,18,16.70
2009,08,17,04,19,16.70
2009,08,17,04,20,16.70
2009,08,17,04,21,16.70
2009,08,17,04,22,16.70
2009,08,17,04,23,16.70
2009,08,17,04,24,16.70
2009,08,17,04,25,16.70
2009,08,17,04,26,16.70
2009,08,17,04,27,16.70
2009,08,17,04,28,16.70
2009,08,17,04,29,16.70
2009,08,17,04,30,16.70
2009,08,17,04,31,16.60
2009,08,17,04,32,16.60
2009,08,17,04,33,16.60
2009,08,17,04,34,16.60
2009,08,17,04,35,16.50
2009,08,17,04,36,16.50
2009,08,17,04,37,16.50
2009,08,17,04,38,16.40
2009,08,17,04,39,16.40
2009,08,17,04,40,16.40
2009,08,17,04,41,16.30
2009,08,17,04,42,16.30
2009,08,17,04,43,16.30
2009,08,17,04,44,16.30
2009,08,17,04,45,16.30
2009,08,17,04,46,16.30
2009,08,17,04,47,16.30
2009,08,17,04,48,16.30
2009,08,17,04,49,16.30
2009,08,17,04,50,16.30
2009,08,17,04,51,16.30
2009,08,17,04,52,16.30
2009,08,17,04,53,16.30
2009,08,17,04,54,16.30
2009,08,17,04,55,16.30
2009,08,17,04,56,16.30
2009,08,17,04,57,16.30
2009,08,17,04,58,16.20
2009,08,17,04,59,16.20
2009,08,17,05,00,16.20
2009,08,17,05,01,16.10
2009,08,17,05,02,16.10
2009,08,17,05,03,16.00
2009,08,17,05,04,16.00
2009,08,17,05,05,16.00
2009,08,17,05,06,15.90
2009,08,17,05,07,15.90
2009,08,17,05,08,15.90
2009,08,17,05,09,15.90
2009,08,17,05,10,15.90
2009,08,17,05,11,15.90
2009,08,17,05,12,15.90
2009,08,17,05,13,15.80
2009,08,17,05,14,15.80
2009,08,17,05,15,15.80
2009,08,17,05,16,15.80
2009,08,17,05,17,15.80
2009,08,17,05,18,15.70
2009,08,17,05,19,15.70
2009,08,17,05,20,15.60
2009,08,17,05,21,15.60
2009,08,17,05,22,15.60
2009,08,17,05,23,15.50
2009,08,17,05,24,15.50
2009,08,17,05,25,15.40
2009,08,17,05,26,15.40
2009,08,17,05,27,15.40
2009,08,17,05,28,15.30
2009,08,17,05,29,15.30
2009,08,17,05,30,15.30
2009,08,17,05,31,15.30
2009,08,17,05,32,15.20
2009,08,17,05,33,15.20
2009,08,17,05,34,15.10
2009,08,17,05,35,15.10
2009,08,17,05,36,15.00
2009,08,17,05,37,15.00
2009,08,17,05,38,15.00
2009,08,17,05,39,15.00
2009,08,17,05,40,15.00
2009,08,17,05,41,15.00
2009,08,17,05,42,15.00
2009,08,17,05,43,15.00
2009,08,17,05,44,15.00
2009,08,17,05,45,15.00
2009,08,17,05,46,15.00
2009,08,17,05,47,15.00
2009,08,17,05,48,15.00
2009,08,17,05,49,14.90
2009,08,17,05,50,14.90
2009,08,17,05,51,14.90
2009,08,17,05,52,14.90
2009,08,17,05,53,14.90
2009,08,17,05,54,14.90
2009,08,17,05,55,14.90
2009,08,17,05,56,14.90
2009,08,17,05,57,14.80
2009,08,17,05,58,14.80
2009,08,17,05,59,14.80
2009,08,17,06,00,14.80
2009,08,17,06,01,14.80
2009,08,17,06,02,14.70
2009,08,17,06,03,14.70
2009,08,17,06,04,14.70
2009,08,17,06,05,14.70
2009,08,17,06,06,14.70
2009,08,17,06,07,14.70
2009,08,17,06,08,14.70
2009,08,17,06,09,14.60
2009,08,17,06,10,14.60
2009,08,17,06,11,14.60
2009,08,17,06,12,14.60
2009,08,17,06,13,14.60
2009,08,17,06,14,14.60
2009,08,17,06,15,14.50
2009,08,17,06,16,14.50
2009,08,17,06,17,14.40
2009,08,17,06,18,14.40
2009,08,17,06,19,14.40
2009,08,17,06,20,14.40
2009,08,17,06,21,14.30
2009,08,17,06,22,14.30
2009,08,17,06,23,14.30
2009,08,17,06,24,14.30
2009,08,17,06,25,14.30
2009,08,17,06,26,14.30
2009,08,17,06,27,14.30
2009,08,17,06,28,14.40
2009,08,17,06,29,14.40
2009,08,17,06,30,14.30
2009,08,17,06,31,14.30
2009,08,17,06,32,14.30
2009,08,17,06,33,14.30
2009,08,17,06,34,14.30
2009,08,17,06,35,14.30
2009,08,17,06,36,14.30
2009,08,17,06,37,14.30
2009,08,17,06,38,14.30
2009,08,17,06,39,14.30
2009,08,17,06,40,14.20
2009,08,17,06,41,14.20
2009,08,17,06,42,14.20
2009,08,17,06,43,14.20
2009,08,17,06,44,14.20
2009,08,17,06,45,14.20
2009,08,17,06,46,14.20
2009,08,17,06,47,14.20
2009,08,17,06,48,14.20
2009,08,17,06,49,14.20
2009,08,17,06,50,14.20
2009,08,17,06,51,14.20
2009,08,17,06,52,14.20
2009,08,17,06,53,14.20
2009,08,17,06,54,14.20
2009,08,17,06,55,14.20
2009,08,17,06,56,14.20
2009,08,17,06,57,14.20
2009,08,17,06,58,14.30
2009,08,17,06,59,14.30
2009,08,17,07,00,14.30
2009,08,17,07,01,14.30
2009,08,17,07,02,14.40
2009,08,17,07,03,14.40
2009,08,17,07,04,14.40
2009,08,17,07,05,14.40
2009,08,17,07,06,14.50
2009,08,17,07,07,14.50
2009,08,17,07,08,14.50
2009,08,17,07,09,14.60
2009,08,17,07,10,14.60
2009,08,17,07,11,14.60
2009,08,17,07,12,14.70
2009,08,17,07,13,14.70
2009,08,17,07,14,14.70
2009,08,17,07,15,14.70
2009,08,17,07,16,14.80
2009,08,17,07,17,14.80
2009,08,17,07,18,14.80
2009,08,17,07,19,14.90
2009,08,17,07,20,14.90
2009,08,17,07,21,14.90
2009,08,17,07,22,15.00
2009,08,17,07,23,15.00
2009,08,17,07,24,15.00
2009,08,17,07,25,15.00
2009,08,17,07,26,15.00
2009,08,17,07,27,15.00
2009,08,17,07,28,15.00
2009,08,17,07,29,15.00
2009,08,17,07,30,15.00
2009,08,17,07,31,15.00
2009,08,17,07,32,15.00
2009,08,17,07,33,15.10
2009,08,17,07,34,15.20
2009,08,17,07,35,15.30
2009,08,17,07,36,15.30
2009,08,17,07,37,15.40
2009,08,17,07,38,15.50
2009,08,17,07,39,15.50
2009,08,17,07,40,15.60
2009,08,17,07,41,15.70
2009,08,17,07,42,15.80
2009,08,17,07,43,15.80
2009,08,17,07,44,15.90
2009,08,17,07,45,16.00
2009,08,17,07,46,16.20
2009,08,17,07,47,16.30
2009,08,17,07,48,16.50
2009,08,17,07,49,16.60
2009,08,17,07,50,16.70
2009,08,17,07,51,16.80
2009,08,17,07,52,16.90
2009,08,17,07,53,16.90
2009,08,17,07,54,17.00
2009,08,17,07,55,17.10
2009,08,17,07,56,17.20
2009,08,17,07,57,17.30
2009,08,17,07,58,17.40
2009,08,17,07,59,17.50
2009,08,17,08,00,17.50
2009,08,17,08,01,17.60
2009,08,17,08,02,17.70
2009,08,17,08,03,17.80
2009,08,17,08,04,17.80
2009,08,17,08,05,17.90
2009,08,17,08,06,17.90
2009,08,17,08,07,17.80
2009,08,17,08,08,17.80
2009,08,17,08,09,17.80
2009,08,17,08,10,17.80
2009,08,17,08,11,17.80
2009,08,17,08,12,17.90
2009,08,17,08,13,17.90
2009,08,17,08,14,18.00
2009,08,17,08,15,18.00
2009,08,17,08,16,18.10
2009,08,17,08,17,18.10
2009,08,17,08,18,18.10
2009,08,17,08,19,18.20
2009,08,17,08,20,18.30
2009,08,17,08,21,18.40
2009,08,17,08,22,18.50
2009,08,17,08,23,18.60
2009,08,17,08,24,18.70
2009,08,17,08,25,18.70
2009,08,17,08,26,18.70
2009,08,17,08,27,18.80
2009,08,17,08,28,18.80
2009,08,17,08,29,18.90
2009,08,17,08,30,18.90
2009,08,17,08,31,18.90
2009,08,17,08,32,19.00
2009,08,17,08,33,19.00
2009,08,17,08,34,19.00
2009,08,17,08,35,19.00
2009,08,17,08,36,19.10
2009,08,17,08,37,19.10
2009,08,17,08,38,19.20
2009,08,17,08,39,19.30
2009,08,17,08,40,19.40
2009,08,17,08,41,19.50
2009,08,17,08,42,19.60
2009,08,17,08,43,19.70
2009,08,17,08,44,19.70
2009,08,17,08,45,19.80
2009,08,17,08,46,19.90
2009,08,17,08,47,19.90
2009,08,17,08,48,20.00
2009,08,17,08,49,20.10
2009,08,17,08,50,20.20
2009,08,17,08,51,20.20
2009,08,17,08,52,20.30
2009,08,17,08,53,20.40
2009,08,17,08,54,20.50
2009,08,17,08,55,20.50
2009,08,17,08,56,20.50
2009,08,17,08,57,20.50
2009,08,17,08,58,20.50
2009,08,17,08,59,20.50
2009,08,17,09,00,20.60
2009,08,17,09,01,20.50
2009,08,17,09,02,20.40
2009,08,17,09,03,20.40
2009,08,17,09,04,20.40
2009,08,17,09,05,20.40
2009,08,17,09,06,20.30
2009,08,17,09,07,20.20
2009,08,17,09,08,20.20
2009,08,17,09,09,20.20
2009,08,17,09,10,20.20
2009,08,17,09,11,20.20
2009,08,17,09,12,20.20
2009,08,17,09,13,20.30
2009,08,17,09,14,20.30
2009,08,17,09,15,20.40
2009,08,17,09,16,20.40
2009,08,17,09,17,20.40
2009,08,17,09,18,20.30
2009,08,17,09,19,20.40
2009,08,17,09,20,20.40
2009,08,17,09,21,20.60
2009,08,17,09,22,20.60
2009,08,17,09,23,20.70
2009,08,17,09,24,20.80
2009,08,17,09,25,20.90
2009,08,17,09,26,21.00
2009,08,17,09,27,21.00
2009,08,17,09,28,21.00
2009,08,17,09,29,21.00
2009,08,17,09,30,20.90
2009,08,17,09,31,20.80
2009,08,17,09,32,20.80
2009,08,17,09,33,20.80
2009,08,17,09,34,20.70
2009,08,17,09,35,20.70
2009,08,17,09,36,20.70
2009,08,17,09,37,20.70
2009,08,17,09,38,20.70
2009,08,17,09,39,20.70
2009,08,17,09,40,20.60
2009,08,17,09,41,20.60
2009,08,17,09,42,20.60
2009,08,17,09,43,20.60
2009,08,17,09,44,20.50
2009,08,17,09,45,20.40
2009,08,17,09,46,20.40
2009,08,17,09,47,20.40
2009,08,17,09,48,20.40
2009,08,17,09,49,20.40
2009,08,17,09,50,20.40
2009,08,17,09,51,20.50
2009,08,17,09,52,20.60
2009,08,17,09,53,20.60
2009,08,17,09,54,20.60
2009,08,17,09,55,20.60
2009,08,17,09,56,20.70
2009,08,17,09,57,20.70
2009,08,17,09,58,20.70
2009,08,17,09,59,20.70
2009,08,17,10,00,20.70
2009,08,17,10,01,20.60
2009,08,17,10,02,20.50
2009,08,17,10,03,20.40
2009,08,17,10,04,20.40
2009,08,17,10,05,20.40
2009,08,17,10,06,20.40
2009,08,17,10,07,20.40
2009,08,17,10,08,20.40
2009,08,17,10,09,20.30
2009,08,17,10,10,20.30
2009,08,17,10,11,20.30
2009,08,17,10,12,20.30
2009,08,17,10,13,20.30
2009,08,17,10,14,20.50
2009,08,17,10,15,20.50
2009,08,17,10,16,20.60
2009,08,17,10,17,20.60
2009,08,17,10,18,20.60
2009,08,17,10,19,20.60
2009,08,17,10,20,20.60
2009,08,17,10,21,20.60
2009,08,17,10,22,20.60
2009,08,17,10,23,20.60
2009,08,17,10,24,20.70
2009,08,17,10,25,20.70
2009,08,17,10,26,20.70
2009,08,17,10,27,20.70
2009,08,17,10,28,20.70
2009,08,17,10,29,20.80
2009,08,17,10,30,20.70
2009,08,17,10,31,20.80
2009,08,17,10,32,20.80
2009,08,17,10,33,21.00
2009,08,17,10,34,21.10
2009,08,17,10,35,21.10
2009,08,17,10,36,21.20
2009,08,17,10,37,21.20
2009,08,17,10,38,21.20
2009,08,17,10,39,21.20
2009,08,17,10,40,21.20
2009,08,17,10,41,21.20
2009,08,17,10,42,21.20
2009,08,17,10,43,21.30
2009,08,17,10,44,21.40
2009,08,17,10,45,21.50
2009,08,17,10,46,21.70
2009,08,17,10,47,21.90
2009,08,17,10,48,22.00
2009,08,17,10,49,22.10
2009,08,17,10,50,22.20
2009,08,17,10,51,22.30
2009,08,17,10,52,22.30
2009,08,17,10,53,22.30
2009,08,17,10,54,22.30
2009,08,17,10,55,22.20
2009,08,17,10,56,22.20
2009,08,17,10,57,22.10
2009,08,17,10,58,22.10
2009,08,17,10,59,22.00
2009,08,17,11,00,22.00
2009,08,17,11,01,22.00
2009,08,17,11,02,22.10
2009,08,17,11,03,22.10
2009,08,17,11,04,22.20
2009,08,17,11,05,22.30
2009,08,17,11,06,22.30
2009,08,17,11,07,22.30
2009,08,17,11,08,22.30
2009,08,17,11,09,22.30
2009,08,17,11,10,22.40
2009,08,17,11,11,22.40
2009,08,17,11,12,22.40
2009,08,17,11,13,22.40
2009,08,17,11,14,22.50
2009,08,17,11,15,22.60
2009,08,17,11,16,22.70
2009,08,17,11,17,22.70
2009,08,17,11,18,22.80
2009,08,17,11,19,22.90
2009,08,17,11,20,22.80
2009,08,17,11,21,22.80
2009,08,17,11,22,22.80
2009,08,17,11,23,22.70
2009,08,17,11,24,22.70
2009,08,17,11,25,22.70
2009,08,17,11,26,22.60
2009,08,17,11,27,22.60
2009,08,17,11,28,22.60
2009,08,17,11,29,22.60
2009,08,17,11,30,22.70
2009,08,17,11,31,22.70
2009,08,17,11,32,22.70
2009,08,17,11,33,22.70
2009,08,17,11,34,22.70
2009,08,17,11,35,22.60
2009,08,17,11,36,22.50
2009,08,17,11,37,22.50
2009,08,17,11,38,22.60
2009,08,17,11,39,22.60
2009,08,17,11,40,22.60
2009,08,17,11,41,22.70
2009,08,17,11,42,22.70
2009,08,17,11,43,22.70
2009,08,17,11,44,22.70
2009,08,17,11,45,22.70
2009,08,17,11,46,22.70
2009,08,17,11,47,22.80
2009,08,17,11,48,22.80
2009,08,17,11,49,22.80
2009,08,17,11,50,22.70
2009,08,17,11,51,22.70
2009,08,17,11,52,22.70
2009,08,17,11,53,22.80
2009,08,17,11,54,22.80
2009,08,17,11,55,22.80
2009,08,17,11,56,22.90
2009,08,17,11,57,23.00
2009,08,17,11,58,23.00
2009,08,17,11,59,23.10
2009,08,17,12,00,23.10
2009,08,17,12,01,23.10
2009,08,17,12,02,23.30
2009,08,17,12,03,23.30
2009,08,17,12,04,23.30
2009,08,17,12,05,23.30
2009,08,17,12,06,23.30
2009,08,17,12,07,23.30
2009,08,17,12,08,23.30
2009,08,17,12,09,23.30
2009,08,17,12,10,23.40
2009,08,17,12,11,23.40
2009,08,17,12,12,23.30
2009,08,17,12,13,23.30
2009,08,17,12,14,23.20
2009,08,17,12,15,23.20
2009,08,17,12,16,23.30
2009,08,17,12,17,23.30
2009,08,17,12,18,23.30
2009,08,17,12,19,23.30
2009,08,17,12,20,23.30
2009,08,17,12,21,23.40
2009,08,17,12,22,23.40
2009,08,17,12,23,23.40
2009,08,17,12,24,23.40
2009,08,17,12,25,23.40
2009,08,17,12,26,23.40
2009,08,17,12,27,23.40
2009,08,17,12,28,23.40
2009,08,17,12,29,23.40
2009,08,17,12,30,23.40
2009,08,17,12,31,23.40
2009,08,17,12,32,23.30
2009,08,17,12,33,23.30
2009,08,17,12,34,23.20
2009,08,17,12,35,23.10
2009,08,17,12,36,23.10
2009,08,17,12,37,23.10
2009,08,17,12,38,23.20
2009,08,17,12,39,23.40
2009,08,17,12,40,23.40
2009,08,17,12,41,23.40
2009,08,17,12,42,23.40
2009,08,17,12,43,23.40
2009,08,17,12,44,23.40
2009,08,17,12,45,23.40
2009,08,17,12,46,23.30
2009,08,17,12,47,23.30
2009,08,17,12,48,23.30
2009,08,17,12,49,23.30
2009,08,17,12,50,23.20
2009,08,17,12,51,23.20
2009,08,17,12,52,23.30
2009,08,17,12,53,23.40
2009,08,17,12,54,23.40
2009,08,17,12,55,23.50
2009,08,17,12,56,23.60
2009,08,17,12,57,23.60
2009,08,17,12,58,23.60
2009,08,17,12,59,23.70
2009,08,17,13,00,23.70
2009,08,17,13,01,23.80
2009,08,17,13,02,23.80
2009,08,17,13,03,23.90
2009,08,17,13,04,24.00
2009,08,17,13,05,24.00
2009,08,17,13,06,23.90
2009,08,17,13,07,23.90
2009,08,17,13,08,23.90
2009,08,17,13,09,24.00
2009,08,17,13,10,24.10
2009,08,17,13,11,24.20
2009,08,17,13,12,24.20
2009,08,17,13,13,24.20
2009,08,17,13,14,24.20
2009,08,17,13,15,24.20
2009,08,17,13,16,24.30
2009,08,17,13,17,24.20
2009,08,17,13,18,24.00
2009,08,17,13,19,23.90
2009,08,17,13,20,23.90
2009,08,17,13,21,23.90
2009,08,17,13,22,24.00
2009,08,17,13,23,24.10
2009,08,17,13,24,24.20
2009,08,17,13,25,24.30
2009,08,17,13,26,24.30
2009,08,17,13,27,24.30
2009,08,17,13,28,24.30
2009,08,17,13,29,24.30
2009,08,17,13,30,24.40
2009,08,17,13,31,24.40
2009,08,17,13,32,24.40
2009,08,17,13,33,24.40
2009,08,17,13,34,24.40
2009,08,17,13,35,24.50
2009,08,17,13,36,24.50
2009,08,17,13,37,24.60
2009,08,17,13,38,24.60
2009,08,17,13,39,24.40
2009,08,17,13,40,24.30
2009,08,17,13,41,24.10
2009,08,17,13,42,24.10
2009,08,17,13,43,24.10
2009,08,17,13,44,24.00
2009,08,17,13,45,24.10
2009,08,17,13,46,24.10
2009,08,17,13,47,24.10
2009,08,17,13,48,24.10
2009,08,17,13,49,24.20
2009,08,17,13,50,24.20
2009,08,17,13,51,24.30
2009,08,17,13,52,24.40
2009,08,17,13,53,24.50
2009,08,17,13,54,24.60
2009,08,17,13,55,24.60
2009,08,17,13,56,24.60
2009,08,17,13,57,24.70
2009,08,17,13,58,24.70
2009,08,17,13,59,24.80
2009,08,17,14,00,24.90
2009,08,17,14,01,24.90
2009,08,17,14,02,24.90
2009,08,17,14,03,24.70
2009,08,17,14,04,24.50
2009,08,17,14,05,24.50
2009,08,17,14,06,24.50
2009,08,17,14,07,24.60
2009,08,17,14,08,24.50
2009,08,17,14,09,24.40
2009,08,17,14,10,24.40
2009,08,17,14,11,24.50
2009,08,17,14,12,24.40
2009,08,17,14,13,24.40
2009,08,17,14,14,24.30
2009,08,17,14,15,24.30
2009,08,17,14,16,24.40
2009,08,17,14,17,24.40
2009,08,17,14,18,24.40
2009,08,17,14,19,24.40
2009,08,17,14,20,24.50
2009,08,17,14,21,24.60
2009,08,17,14,22,24.60
2009,08,17,14,23,24.60
2009,08,17,14,24,24.60
2009,08,17,14,25,24.60
2009,08,17,14,26,24.50
2009,08,17,14,27,24.50
2009,08,17,14,28,24.60
2009,08,17,14,29,24.60
2009,08,17,14,30,24.70
2009,08,17,14,31,24.80
2009,08,17,14,32,24.70
2009,08,17,14,33,24.80
2009,08,17,14,34,24.80
2009,08,17,14,35,24.80
2009,08,17,14,36,24.90
2009,08,17,14,37,25.00
2009,08,17,14,38,25.10
2009,08,17,14,39,25.20
2009,08,17,14,40,25.20
2009,08,17,14,41,25.30
2009,08,17,14,42,25.30
2009,08,17,14,43,25.40
2009,08,17,14,44,25.50
2009,08,17,14,45,25.60
2009,08,17,14,46,25.70
2009,08,17,14,47,25.70
2009,08,17,14,48,25.60
2009,08,17,14,49,25.60
2009,08,17,14,50,25.60
2009,08,17,14,51,25.60
2009,08,17,14,52,25.60
2009,08,17,14,53,25.70
2009,08,17,14,54,25.70
2009,08,17,14,55,25.70
2009,08,17,14,56,25.70
2009,08,17,14,57,25.60
2009,08,17,14,58,25.60
2009,08,17,14,59,25.70
2009,08,17,15,00,25.70
2009,08,17,15,01,25.80
2009,08,17,15,02,25.80
2009,08,17,15,03,25.80
2009,08,17,15,04,25.70
2009,08,17,15,05,25.70
2009,08,17,15,06,25.70
2009,08,17,15,07,25.70
2009,08,17,15,08,25.70
2009,08,17,15,09,25.60
2009,08,17,15,10,25.50
2009,08,17,15,11,25.40
2009,08,17,15,12,25.40
2009,08,17,15,13,25.30
2009,08,17,15,14,25.30
2009,08,17,15,15,25.30
2009,08,17,15,16,25.40
2009,08,17,15,17,25.50
2009,08,17,15,18,25.50
2009,08,17,15,19,25.60
2009,08,17,15,20,25.60
2009,08,17,15,21,25.70
2009,08,17,15,22,25.70
2009,08,17,15,23,25.80
2009,08,17,15,24,25.80
2009,08,17,15,25,25.70
2009,08,17,15,26,25.80
2009,08,17,15,27,25.80
2009,08,17,15,28,25.90
2009,08,17,15,29,25.80
2009,08,17,15,30,25.80
2009,08,17,15,31,25.80
2009,08,17,15,32,25.80
2009,08,17,15,33,25.80
2009,08,17,15,34,25.70
2009,08,17,15,35,25.70
2009,08,17,15,36,25.70
2009,08,17,15,37,25.70
2009,08,17,15,38,25.70
2009,08,17,15,39,25.70
2009,08,17,15,40,25.60
2009,08,17,15,41,25.60
2009,08,17,15,42,25.50
2009,08,17,15,43,25.40
2009,08,17,15,44,25.30
2009,08,17,15,45,25.30
2009,08,17,15,46,25.30
2009,08,17,15,47,25.30
2009,08,17,15,48,25.30
2009,08,17,15,49,25.30
2009,08,17,15,50,25.40
2009,08,17,15,51,25.40
2009,08,17,15,52,25.50
2009,08,17,15,53,25.50
2009,08,17,15,54,25.60
2009,08,17,15,55,25.60
2009,08,17,15,56,25.70
2009,08,17,15,57,25.80
2009,08,17,15,58,25.90
2009,08,17,15,59,26.00
2009,08,17,16,00,26.10
2009,08,17,16,01,26.20
2009,08,17,16,02,26.30
2009,08,17,16,03,26.30
2009,08,17,16,04,26.30
2009,08,17,16,05,26.30
2009,08,17,16,06,26.30
2009,08,17,16,07,26.20
2009,08,17,16,08,26.20
2009,08,17,16,09,26.10
2009,08,17,16,10,26.00
2009,08,17,16,11,25.90
2009,08,17,16,12,25.90
2009,08,17,16,13,26.00
2009,08,17,16,14,26.00
2009,08,17,16,15,26.10
2009,08,17,16,16,26.20
2009,08,17,16,17,26.20
2009,08,17,16,18,26.30
2009,08,17,16,19,26.40
2009,08,17,16,20,26.40
2009,08,17,16,21,26.50
2009,08,17,16,22,26.60
2009,08,17,16,23,26.60
2009,08,17,16,24,26.70
2009,08,17,16,25,26.70
2009,08,17,16,26,26.70
2009,08,17,16,27,26.70
2009,08,17,16,28,26.70
2009,08,17,16,29,26.60
2009,08,17,16,30,26.50
2009,08,17,16,31,26.50
2009,08,17,16,32,26.40
2009,08,17,16,33,26.50
2009,08,17,16,34,26.50
2009,08,17,16,35,26.50
2009,08,17,16,36,26.50
2009,08,17,16,37,26.40
2009,08,17,16,38,26.40
2009,08,17,16,39,26.40
2009,08,17,16,40,26.40
2009,08,17,16,41,26.20
2009,08,17,16,42,26.20
2009,08,17,16,43,26.10
2009,08,17,16,44,26.00
2009,08,17,16,45,25.90
2009,08,17,16,46,25.90
2009,08,17,16,47,25.90
2009,08,17,16,48,25.90
2009,08,17,16,49,25.90
2009,08,17,16,50,25.90
2009,08,17,16,51,25.90
2009,08,17,16,52,26.00
2009,08,17,16,53,26.10
2009,08,17,16,54,26.20
2009,08,17,16,55,26.20
2009,08,17,16,56,26.30
2009,08,17,16,57,26.30
2009,08,17,16,58,26.30
2009,08,17,16,59,26.30
2009,08,17,17,00,26.40
2009,08,17,17,01,26.40
2009,08,17,17,02,26.50
2009,08,17,17,03,26.50
2009,08,17,17,04,26.60
2009,08,17,17,05,26.50
2009,08,17,17,06,26.50
2009,08,17,17,07,26.50
2009,08,17,17,08,26.60
2009,08,17,17,09,26.70
2009,08,17,17,10,26.60
2009,08,17,17,11,26.60
2009,08,17,17,12,26.50
2009,08,17,17,13,26.50
2009,08,17,17,14,26.50
2009,08,17,17,15,26.50
2009,08,17,17,16,26.50
2009,08,17,17,17,26.50
2009,08,17,17,18,26.50
2009,08,17,17,19,26.50